Location: Caltech
(34.1382°N, 118.1253°W)
Time: 03:30:52
(UTC-07:00)

NOAA 19 - Visible Passes

Search period start: 25 April 2017 00:00
Search period end: 05 May 2017 00:00
Orbit: 841 x 863 km, 99.1° (Epoch: 23 April)

Date Brightness Start Highest point End Pass type
(mag) Time Alt. Az. Time Alt. Az. Time Alt. Az.
25 Apr 6.8 03:32:36 10° NE 03:37:20 29° E 03:40:19 18° SE visible
25 Apr 6.1 05:13:09 10° N 05:17:55 31° WNW 05:22:21 12° SW visible
26 Apr 7.2 03:21:34 10° NE 03:25:48 22° E 03:28:48 15° SE visible
26 Apr 5.8 05:01:27 10° N 05:06:32 40° WNW 05:10:50 14° SW visible
27 Apr 7.5 03:10:42 10° NE 03:14:13 17° E 03:17:17 11° SE visible
27 Apr 5.4 04:49:49 10° N 04:55:07 51° WNW 04:59:19 16° SW visible
28 Apr 7.7 03:00:13 10° ENE 03:02:38 13° E 03:05:05 10° ESE visible
28 Apr 5.2 04:38:15 10° N 04:43:42 66° WNW 04:47:48 18° SSW visible
29 Apr 5.1 04:26:44 10° NNE 04:32:15 85° WNW 04:36:16 19° SSW visible
30 Apr 5.3 04:15:16 10° NNE 04:20:47 75° ESE 04:24:45 20° S visible
01 May 5.7 04:03:53 10° NNE 04:09:18 58° ESE 04:13:13 19° S visible
02 May 6.1 03:52:33 10° NNE 03:57:49 45° E 04:01:41 18° SSE visible
03 May 6.6 03:41:18 10° NNE 03:46:18 35° E 03:50:09 16° SSE visible
03 May 6.3 05:22:16 10° NNW 05:26:46 27° WNW 05:31:17 10° WSW visible
04 May 6.9 03:30:09 10° NE 03:34:46 27° E 03:38:37 13° SSE visible
04 May 6.0 05:10:30 10° N 05:15:23 34° WNW 05:20:18 10° SW visible
